Terug naar catalogus

BRITE-PL

ActiefWetenschapSSO
NORAD 39431·PAYLOAD·🇵🇱 Poland

Gelanceerd Nov 21, 2013 vanaf Dombarovsky

Loading…

Volgende Passages (komende 24 uur)

TLE

VersSource: Space-Track

Epoch: Sep 14, 2026, 12:56 UTC

1 39431U 13066R   26257.53892948  .00000478  00000-0  10363-3 0  9991
2 39431  97.8013   3.5008 0191048  93.2522 269.0550 14.51458305676891

Volg BRITE-PL in realtime met AllMySat

Download on the App Store